Location: Martley
(52.2333°N, 2.3667°W)
Time: 05:26:22
(UTC+00:00)

Nadezhda 2 Rocket - Pass Details

Date: 11 December 2019
Orbit: 947 x 1012 km, 83.0° (Epoch: 21 January)

Event Time Altitude Azimuth Distance (km) Brightness Sun altitude
Rises 07:14:06 0° 348° (NNW) 3,657 7.1 -7.8°
Reaches altitude 10° 07:16:38 10° 347° (NNW) 2,700 6.4 -7.4°
Maximum altitude 07:22:46 73° 264° (W) 996 4.5 -6.6°
Drops below altitude 10° 07:28:49 10° 181° (S) 2,664 7.2 -5.8°
Sets 07:31:17 0° 179° (S) 3,605 8.0 -5.5°
